Covington, KY

11:10 AM EST on December 10, 2019 (GMT -0500)
Cincinnati-Northern KY International

Weather History for KCVG - October, 2019

Change the Weather History Date:

Sunday, October 6, 2019

  Actual Average Record
Temperature  
Mean Temperature 66 °F 59 °F  
Max Temperature 75 °F 70 °F 91 °F (1941)
Min Temperature 57 °F 49 °F 29 °F (1980)
Degree Days  
Heating Degree Days 0 7  
Month to date heating degree days 1 38  
Since 1 July heating degree days 1 96  
Cooling Degree Days 2 1  
Month to date cooling degree days 50 8  
Year to date cooling degree days 1492 1113  
Growing Degree Days 16 (Base 50)    
Moisture  
Dew Point 58 °F    
Average Humidity 76    
Maximum Humidity 90    
Minimum Humidity 53    
Precipitation  
Precipitation 0.36 in 0.11 in 2.82 in (1910)
Month to date precipitation 0.36 0.60  
Year to date precipitation 42.78 33.02  
Snow  
Snow 0.00 in 0.00 in 0.00 in ()
Month to date snowfall 0.0 0.0  
Since 1 July snowfall 0.0 0.0  
Since 1 September snowfall 0.0 0.0  
Snow Depth 0.00 in    
Sea Level Pressure  
Sea Level Pressure 30.07 in    
Wind  
Wind Speed 6 mph ()    
Max Wind Speed 20 mph    
Max Gust Speed 26 mph    
Visibility 9.3 miles    
Events Rain    
T = Trace of Precipitation, MM = Missing Value Source: Averaged Metar Reports

Daily Weather History Graph

Daily Weather History Graph

Search for Another Location

Airport or City:

Astronomy

Oct. 06, 2019 Rise Set
Actual Time 7:39 AM EDT 7:13 PM EDT
Civil Twilight 7:12 AM EDT 7:40 PM EDT
Nautical Twilight 6:41 AM EDT 8:11 PM EDT
Astronomical Twilight 6:10 AM EDT 8:42 PM EDT
Moon 3:48 PM EDT (10/6) 12:40 AM EDT (10/6)
Length of Visible Light 12h 27m
Length of Day
11h 34m
First Quarter, 59% of the Moon is Illuminated
Oct 6
First Quarter
Oct 13
Full
Oct 21
Last Quarter
Oct 27
New
Nov 4
First Quarter

Hourly Weather History & Observations

Time (EDT) Temp. Dew Point Humidity Pressure Visibility Wind Dir Wind Speed Gust Speed Precip Events Conditions
12:52 AM 68.0 °F 51.1 °F 55% 29.97 in 10.0 mi SSW 4.6 mph - 0.00 in   Overcast
1:52 AM 64.0 °F 55.9 °F 75% 29.99 in 6.0 mi SW 3.5 mph - 0.03 in Rain Light Rain
2:52 AM 64.0 °F 55.9 °F 75% 29.96 in 10.0 mi ESE 3.5 mph - 0.00 in   Overcast
3:52 AM 62.1 °F 57.9 °F 86% 29.97 in 10.0 mi South 3.5 mph - N/A   Overcast
4:52 AM 64.0 °F 55.9 °F 75% 29.99 in 10.0 mi SW 5.8 mph - N/A   Overcast
5:52 AM 62.1 °F 57.0 °F 84% 30.02 in 10.0 mi South 4.6 mph - N/A   Overcast
6:52 AM 62.1 °F 57.9 °F 86% 30.04 in 10.0 mi South 4.6 mph - N/A   Mostly Cloudy
7:52 AM 63.0 °F 57.0 °F 81% 30.05 in 10.0 mi South 4.6 mph - N/A   Overcast
8:52 AM 66.0 °F 59.0 °F 78% 30.06 in 10.0 mi South 6.9 mph - N/A   Mostly Cloudy
9:43 AM 68.0 °F 63.0 °F 84% 30.08 in 9.0 mi SSW 10.4 mph - N/A   Mostly Cloudy
9:52 AM 70.0 °F 64.0 °F 81% 30.06 in 9.0 mi SSW 13.8 mph - N/A   Mostly Cloudy
10:52 AM 72.0 °F 64.0 °F 76% 30.08 in 10.0 mi SW 13.8 mph 23.0 mph N/A   Mostly Cloudy
11:52 AM 75.0 °F 62.1 °F 64% 30.08 in 10.0 mi SW 15.0 mph 23.0 mph N/A   Mostly Cloudy
12:52 PM 73.0 °F 61.0 °F 66% 30.10 in 7.0 mi West 12.7 mph - 0.01 in Rain Light Rain
1:52 PM 72.0 °F 59.0 °F 64% 30.09 in 10.0 mi WNW 11.5 mph - 0.00 in   Mostly Cloudy
2:52 PM 73.0 °F 55.9 °F 55% 30.07 in 10.0 mi West 8.1 mph - N/A   Overcast
3:52 PM 73.0 °F 55.9 °F 55% 30.07 in 10.0 mi West 6.9 mph - N/A   Overcast
4:52 PM 71.1 °F 55.9 °F 59% 30.08 in 10.0 mi NW 9.2 mph - 0.00 in   Overcast
5:52 PM 70.0 °F 59.0 °F 68% 30.08 in 10.0 mi NNW 11.5 mph - 0.00 in   Overcast
6:52 PM 66.9 °F 57.0 °F 70% 30.10 in 10.0 mi North 5.8 mph - N/A   Overcast
8:52 PM 62.1 °F 57.9 °F 86% 30.12 in 6.0 mi North 5.8 mph - 0.09 in Rain Light Rain
9:52 PM 61.0 °F 57.0 °F 87% 30.09 in 10.0 mi ENE 9.2 mph - 0.08 in Rain Rain
10:08 PM 63.0 °F 57.9 °F 84% 30.12 in 5.0 mi North 5.8 mph - 0.04 in Rain Rain
10:27 PM 60.1 °F 57.0 °F 90% 30.13 in 10.0 mi NNW 6.9 mph - 0.06 in Rain Light Rain
10:52 PM 60.1 °F 57.0 °F 90% 30.12 in 10.0 mi North 10.4 mph - 0.06 in   Overcast
11:15 PM 60.1 °F 57.0 °F 90% 30.15 in 10.0 mi NNW 8.1 mph - N/A   Overcast
11:52 PM 57.9 °F 55.0 °F 90% 30.14 in 8.0 mi NNW 9.2 mph - 0.01 in Rain Light Rain